Terug naar catalogus

STARLINK-37158

ActiefCommunicatieVLEO
NORAD 68343·PAYLOAD·🇺🇸 United States

Gelanceerd Mar 22, 2026 vanaf Cape Canaveral Space Force Station

Loading…

Volgende Passages (komende 24 uur)

TLE

VersSource: CelesTrak SupGP

Epoch: Sep 15, 2026, 03:50 UTC

1 68343C 26059Y   26258.16020833 -.00038543  00000+0 -11389-2 0  2588
2 68343  53.1571 181.0322 0001313  86.5656 327.6312 15.34404725    19

Volg STARLINK-37158 in realtime met AllMySat

Download on the App Store